Mount Airy, NC

9:36 PM EST on December 08, 2019 (GMT -0500)
Mount Airy-Surry County

Weather History for KMWK - June, 2019

Change the Weather History Date:

Thursday, June 6, 2019

  Actual Average (WUND) Record (WUND)
Temperature  
Mean Temperature 76 °F -  
Max Temperature 85 °F - - (-1)
Min Temperature 67 °F - - (-1)
Cooling Degree Days 11    
Growing Degree Days 26 (Base 50)    
Moisture  
Dew Point 68 °F    
Average Humidity 82    
Maximum Humidity 91    
Minimum Humidity 60    
Precipitation  
Precipitation 0.00 in - - ()
Sea Level Pressure  
Sea Level Pressure 29.91 in    
Wind  
Wind Speed 2 mph ()    
Max Wind Speed 10 mph    
Max Gust Speed 17 mph    
Visibility 8.7 miles    
Events Rain    
Averages and records for this station are not official NWS values.
T = Trace of Precipitation, MM = Missing Value Source: Averaged Metar Reports

Daily Weather History Graph

Daily Weather History Graph

Search for Another Location

Airport or City:

Astronomy

Jun. 06, 2019 Rise Set
Actual Time 6:04 AM EDT 8:37 PM EDT
Civil Twilight 5:34 AM EDT 9:07 PM EDT
Nautical Twilight 4:56 AM EDT 9:45 PM EDT
Astronomical Twilight 4:15 AM EDT 10:27 PM EDT
Moon 9:10 AM EDT (6/6) 11:55 PM EDT (6/6)
Length of Visible Light 15h 33m
Length of Day
14h 33m
Waxing Crescent, 13% of the Moon is Illuminated
Jun 6
Waxing Crescent
Jun 10
First Quarter
Jun 17
Full
Jun 25
Last Quarter
Jul 2
New

Hourly Weather History & Observations

Time (EDT) Temp. Heat Index Dew Point Humidity Pressure Visibility Wind Dir Wind Speed Gust Speed Precip Events Conditions
12:00 AM 70.0 °F - 65.5 °F 86% 29.97 in 10.0 mi Calm Calm - N/A   Clear
12:20 AM 70.0 °F - 65.5 °F 86% 29.97 in 10.0 mi Calm Calm - N/A   Clear
12:40 AM 69.8 °F - 65.7 °F 87% 29.97 in 10.0 mi Calm Calm - N/A   Clear
1:00 AM 69.8 °F - 66.2 °F 88% 29.95 in 10.0 mi Calm Calm - N/A   Clear
1:20 AM 70.0 °F - 66.4 °F 88% 29.94 in 10.0 mi Calm Calm - N/A   Clear
1:40 AM 69.3 °F - 66.2 °F 90% 29.94 in 10.0 mi Calm Calm - N/A   Clear
2:00 AM 69.3 °F - 66.2 °F 90% 29.94 in 10.0 mi NW 3.5 mph - N/A   Clear
2:20 AM 69.1 °F - 65.8 °F 89% 29.93 in 10.0 mi Calm Calm - N/A   Clear
2:40 AM 68.0 °F - 65.3 °F 91% 29.92 in 10.0 mi Calm Calm - N/A   Clear
3:00 AM 67.6 °F - 64.8 °F 90% 29.92 in 10.0 mi Calm Calm - N/A   Clear
3:20 AM 68.7 °F - 65.7 °F 90% 29.92 in 10.0 mi Calm Calm - N/A   Scattered Clouds
3:40 AM 69.1 °F - 66.0 °F 90% 29.91 in 10.0 mi Calm Calm - N/A   Clear
4:00 AM 69.1 °F - 66.0 °F 90% 29.90 in 10.0 mi Calm Calm - N/A   Clear
4:20 AM 68.7 °F - 65.8 °F 90% 29.89 in 10.0 mi Calm Calm - N/A   Clear
4:40 AM 69.6 °F - 66.6 °F 90% 29.90 in 10.0 mi Calm Calm - N/A   Clear
5:00 AM 68.9 °F - 66.0 °F 90% 29.90 in 10.0 mi Calm Calm - N/A   Clear
5:20 AM 68.9 °F - 66.0 °F 90% 29.90 in 10.0 mi Calm Calm - N/A   Clear
5:40 AM 68.4 °F - 65.5 °F 90% 29.90 in 7.0 mi Calm Calm - N/A   Clear
6:00 AM 68.0 °F - 64.8 °F 89% 29.90 in 7.0 mi Calm Calm - N/A   Clear
6:20 AM 67.6 °F - 64.6 °F 90% 29.90 in 4.0 mi Calm Calm - N/A   Clear
6:40 AM 67.8 °F - 64.6 °F 89% 29.91 in 3.0 mi Calm Calm - N/A   Mist
7:00 AM 68.0 °F - 64.9 °F 90% 29.91 in 2.5 mi Calm Calm - N/A   Overcast
7:20 AM 68.5 °F - 65.5 °F 90% 29.92 in 2.0 mi Calm Calm - N/A   Overcast
7:40 AM 68.5 °F - 65.7 °F 90% 29.92 in 1.8 mi Calm Calm - N/A   Overcast
8:00 AM 69.4 °F - 66.4 °F 90% 29.93 in 1.2 mi Calm Calm - N/A   Mostly Cloudy
8:20 AM 69.8 °F - 66.7 °F 90% 29.93 in 3.0 mi Calm Calm - N/A   Overcast
8:40 AM 70.7 °F - 67.5 °F 89% 29.93 in 5.0 mi Calm Calm - N/A   Mostly Cloudy
9:00 AM 71.8 °F - 68.5 °F 89% 29.93 in 7.0 mi West 3.5 mph - N/A   Scattered Clouds
9:40 AM 75.6 °F - 70.2 °F 83% 29.93 in 10.0 mi SW 3.5 mph - N/A   Clear
10:00 AM 77.9 °F - 71.6 °F 81% 29.93 in 10.0 mi WSW 3.5 mph - N/A   Clear
10:20 AM 78.8 °F - 71.6 °F 78% 29.92 in 10.0 mi SW 3.5 mph - N/A   Clear
10:40 AM 81.1 °F 84.9 °F 70.5 °F 70% 29.92 in 10.0 mi SSW 4.6 mph - N/A   Clear
11:00 AM 82.4 °F 86.3 °F 70.0 °F 66% 29.93 in 10.0 mi SW 5.8 mph - N/A   Clear
11:20 AM 82.4 °F 86.5 °F 70.3 °F 67% 29.93 in 10.0 mi Calm Calm - N/A   Scattered Clouds
11:40 AM 83.1 °F 87.6 °F 70.7 °F 66% 29.93 in 10.0 mi WSW 4.6 mph - N/A   Scattered Clouds
12:00 PM 83.1 °F 87.6 °F 70.5 °F 66% 29.93 in 10.0 mi Calm Calm - N/A   Scattered Clouds
12:20 PM 83.8 °F 88.9 °F 71.4 °F 66% 29.92 in 10.0 mi West 4.6 mph - N/A   Scattered Clouds
12:40 PM 82.8 °F 86.7 °F 70.0 °F 65% 29.92 in 10.0 mi SSW 3.5 mph - N/A   Scattered Clouds
1:00 PM 82.8 °F 87.4 °F 71.2 °F 68% 29.92 in 10.0 mi SW 3.5 mph - N/A   Scattered Clouds
1:20 PM 84.4 °F 89.7 °F 71.2 °F 65% 29.91 in 10.0 mi South 4.6 mph - N/A   Scattered Clouds
1:40 PM 85.5 °F 91.1 °F 71.4 °F 63% 29.91 in 10.0 mi SSW 5.8 mph - N/A   Clear
2:00 PM 85.1 °F 89.8 °F 70.5 °F 61% 29.90 in 10.0 mi SW 5.8 mph - N/A   Scattered Clouds
2:20 PM 85.1 °F 90.1 °F 70.7 °F 62% 29.89 in 10.0 mi SSW 6.9 mph - N/A   Scattered Clouds
2:40 PM 85.8 °F 90.8 °F 70.7 °F 60% 29.89 in 10.0 mi SW 4.6 mph - N/A   Scattered Clouds
3:00 PM 85.3 °F 90.4 °F 70.9 °F 62% 29.88 in 10.0 mi SSW 10.4 mph - N/A   Scattered Clouds
3:20 PM 85.8 °F 90.8 °F 70.3 °F 60% 29.88 in 10.0 mi SSW 8.1 mph - N/A   Clear
3:40 PM 84.6 °F 88.8 °F 70.0 °F 61% 29.88 in 10.0 mi NNW 8.1 mph - N/A   Scattered Clouds
4:00 PM 79.0 °F - 71.1 °F 77% 29.89 in 10.0 mi NW 9.2 mph - N/A   Overcast
4:20 PM 75.9 °F - 68.4 °F 77% 29.90 in 7.0 mi NW 9.2 mph 17.3 mph N/A Rain Light Rain
4:40 PM 72.1 °F - 69.1 °F 90% 29.89 in 3.0 mi NNE 10.4 mph - N/A Rain Light Rain
5:00 PM 74.8 °F - 71.4 °F 89% 29.88 in 10.0 mi NE 5.8 mph - N/A   Clear
5:20 PM 76.1 °F - 71.2 °F 85% 29.89 in 10.0 mi Calm Calm - N/A   Clear
5:40 PM 75.2 °F - 70.7 °F 86% 29.90 in 10.0 mi SSW 5.8 mph - N/A   Scattered Clouds
6:00 PM 76.1 °F - 70.9 °F 84% 29.90 in 10.0 mi Calm Calm - N/A   Scattered Clouds
6:20 PM 76.5 °F - 70.5 °F 82% 29.89 in 10.0 mi ENE 4.6 mph - N/A   Clear
6:40 PM 75.7 °F - 70.5 °F 84% 29.89 in 10.0 mi NE 4.6 mph - N/A   Clear
7:00 PM 75.4 °F - 70.5 °F 85% 29.89 in 10.0 mi ENE 5.8 mph - N/A   Clear
7:20 PM 74.8 °F - 70.0 °F 85% 29.90 in 10.0 mi NE 4.6 mph - N/A   Clear
7:40 PM 74.3 °F - 69.6 °F 85% 29.90 in 10.0 mi North 3.5 mph - N/A   Scattered Clouds
8:00 PM 73.9 °F - 68.9 °F 84% 29.91 in 10.0 mi Calm Calm - N/A   Scattered Clouds
8:20 PM 73.4 °F - 68.9 °F 86% 29.91 in 10.0 mi Calm Calm - N/A   Clear
8:40 PM 72.7 °F - 69.8 °F 91% 29.91 in 10.0 mi SSW 3.5 mph - N/A   Mostly Cloudy
9:00 PM 72.5 °F - 69.4 °F 90% 29.91 in 10.0 mi Calm Calm - N/A Rain Light Rain
9:20 PM 72.5 °F - 69.4 °F 90% 29.92 in 10.0 mi Calm Calm - N/A Rain Rain
9:40 PM 72.3 °F - 69.4 °F 91% 29.92 in 7.0 mi Calm Calm - N/A   Light Drizzle
10:00 PM 72.3 °F - 69.4 °F 91% 29.92 in 10.0 mi Calm Calm - N/A   Clear
10:20 PM 72.5 °F - 69.4 °F 90% 29.92 in 10.0 mi Calm Calm - N/A   Light Drizzle
11:00 PM 71.1 °F - 68.2 °F 91% 29.92 in 7.0 mi Calm Calm - N/A   Clear
11:20 PM 70.9 °F - 68.0 °F 91% 29.92 in 7.0 mi Calm Calm - N/A   Scattered Clouds
11:40 PM 70.7 °F - 67.6 °F 90% 29.92 in 7.0 mi Calm Calm - N/A   Clear